SCISAT 1

Last updated on Wed Sep 09 2026 00:03:35 GMT+0000 (Coordinated Universal Time)

1 27858U 03036A 26251.28464514 .00000466 00000+0 63995-4 0 9993 2 27858 73.9321 6.2240 0006408 42.8211 317.3463 14.81532160243756
UTC large
Height (km)
Speed (km/s)
/
Latitude / Longitude
Inclination (degrees)
Orbital Period (minutes)
Azimuth
Elevation
Range (km)
Doppler Factor

Next 0 passes for location: London (51.5072 / 0.1276)

No passes found over London.
SCISAT 1